Location: Foligno
(42.9600°N, 12.7050°E)
Time: 22:39:49
(UTC+02:00)

ISS - Pass Details

Date: 13 July 2018
Orbit: 402 x 408 km, 51.6° (Epoch: 22 July)

Event Time Altitude Azimuth Distance (km) Brightness Sun altitude
Exits shadow 03:30:34 - 294° (WNW) 1,622 -0.9 -18.1°
Reaches altitude 10° 03:31:03 10° 299° (WNW) 1,469 -1.0 -18.0°
Maximum altitude 03:33:35 20° 349° (N) 1,007 -1.3 -17.8°
Drops below altitude 10° 03:36:07 10° 40° (NE) 1,473 0.3 -17.5°
Sets 03:38:35 0° 58° (ENE) 2,336 1.3 -17.2°
